Amateur Radio Satellites - All Passes

Search period start: 18 June 2013 19:07
Search period end: 19 June 2013 19:07
Location: Newark, 40.7360°N, 74.1730°W

Satellite Date Start Highest point End Downlink Frequencies (MHz)
Time Altitude Azimuth
RS-15 18 Jun 19:11:00 19:20:49 33° 34° (NE) 19:30:19 29.354 - 29.394 USB, Beacon 29.352 USB
JAS-2 18 Jun 19:38:25 19:40:00 11° 55° (NE) 19:41:33 435.800 - 435.900 CW/SSB, 435.910 FM
KITSAT 1 18 Jun 19:45:31 19:52:18 29° 319° (NW) 19:59:09 435.175 FM
JAS-1B 18 Jun 19:48:13 19:55:22 75° 256° (WSW) 20:01:29 435.800 - 435.900 CW/SSB
ISS 18 Jun 19:50:00 19:51:30 12° 1° (N) 19:52:59 145.800 FM
SO-67 18 Jun 19:50:40 19:54:14 83° 77° (ENE) 19:57:49 435.3500 MHz FM
Hamsat 18 Jun 20:05:52 20:09:18 23° 266° (W) 20:12:46 145.90 MHz
STRAND 1 18 Jun 20:24:37 20:29:06 31° 293° (WNW) 20:33:34 ?
MaSat-1 18 Jun 20:24:46 20:30:24 66° 296° (WNW) 20:34:45 437.345 MHz
HO-68 18 Jun 20:44:27 20:51:06 44° 65° (ENE) 20:57:47 435.675 MHz FM
JAS-2 18 Jun 21:16:39 21:23:57 60° 72° (ENE) 21:30:31 435.800 - 435.900 CW/SSB, 435.910 FM
RS-15 18 Jun 21:23:30 21:34:36 85° 240° (WSW) 21:45:29 29.354 - 29.394 USB, Beacon 29.352 USB
ISS 18 Jun 21:26:27 21:29:07 22° 22° (NNE) 21:31:46 145.800 FM
Oscar 11 18 Jun 21:43:38 21:47:54 58° 74° (ENE) 21:52:13 145.825 FM, Beacon 2401.500 USB
KITSAT 1 18 Jun 21:48:48 21:51:05 11° 348° (NNW) 21:53:22 435.175 FM
OPAL 18 Jun 21:57:40 22:02:02 31° 65° (ENE) 22:06:22 ?
HO-68 18 Jun 22:32:26 22:38:51 36° 263° (W) 22:45:20 435.675 MHz FM
Saudisat 1A 18 Jun 22:32:32 22:37:04 70° 120° (ESE) 22:41:40 436.775 MHz
ISS 18 Jun 23:02:47 23:06:02 64° 219° (SW) 23:09:18 145.800 FM
JAS-2 18 Jun 23:03:14 23:09:11 26° 266° (W) 23:14:45 435.800 - 435.900 CW/SSB, 435.910 FM
AO-40 18 Jun 23:14:02 00:58:26 43° 207° (SSW) 06:36:30 Beacon 2401.320
Oscar 11 18 Jun 23:22:44 23:24:30 12° 270° (W) 23:26:17 145.825 FM, Beacon 2401.500 USB
PANSAT 18 Jun 23:29:50 23:31:45 13° 179° (S) 23:33:41 not established
OPAL 18 Jun 23:36:25 23:40:52 31° 261° (W) 23:45:17 ?
RS-15 18 Jun 23:38:17 23:45:09 19° 261° (W) 23:52:01 29.354 - 29.394 USB, Beacon 29.352 USB
Sapphire 18 Jun 23:44:03 23:44:43 10° 101° (E) 23:45:22 437.095 MHz 1200 baud AX-25 AFSK
KITSAT 1 18 Jun 23:47:29 23:51:03 13° 20° (NNE) 23:54:37 435.175 FM
Saudisat 1A 19 Jun 00:14:11 00:17:15 17° 319° (NW) 00:20:21 436.775 MHz
PCSat 19 Jun 00:47:39 00:52:46 45° 112° (ESE) 00:57:56 145.825 MHz
Oscar 10/S400 19 Jun 01:06:22 07:37:41 72° 159° (SSE) 11:33:41 145.825 - 145.975 CW/USB, Beacon 145.810 USB
SO-50 19 Jun 01:08:39 01:13:02 37° 115° (ESE) 01:17:22 436.795 FM
PANSAT 19 Jun 01:10:43 01:11:20 10° 192° (SSW) 01:11:58 not established
Sapphire 19 Jun 01:21:51 01:27:15 85° 118° (ESE) 01:32:42 437.095 MHz 1200 baud AX-25 AFSK
Oscar 19 19 Jun 01:32:43 01:35:04 13° 90° (E) 01:37:24 437.125 CW, 437.150 USB
KITSAT 1 19 Jun 01:41:48 01:49:16 38° 47° (NE) 01:56:41 435.175 FM
ITAMSAT 1 19 Jun 01:55:34 01:59:09 18° 92° (E) 02:02:41 435.822 SSB
AO-27 19 Jun 01:56:28 02:00:10 19° 93° (E) 02:03:50 436.795 MHz FM
Oscar 16 19 Jun 02:15:46 02:20:37 41° 98° (E) 02:25:26 437.025 USB, Beacon 2401.1428
Uribyol 2 19 Jun 02:28:17 02:33:10 39° 98° (E) 02:38:00 436.500 FM
PCSat 19 Jun 02:31:47 02:36:23 28° 311° (NW) 02:41:01 145.825 MHz
AO-Echo 19 Jun 02:38:06 02:41:35 18° 92° (E) 02:45:07 ?
SO-50 19 Jun 02:49:36 02:53:43 28° 312° (NW) 02:57:48 436.795 FM
Sapphire 19 Jun 03:07:54 03:11:24 17° 317° (NW) 03:14:55 437.095 MHz 1200 baud AX-25 AFSK
Oscar 19 19 Jun 03:09:49 03:14:56 71° 286° (WNW) 03:20:01 437.125 CW, 437.150 USB
Gurwin Techsat 1B 19 Jun 03:29:10 03:32:55 19° 92° (E) 03:36:38 435.225 FM
ITAMSAT 1 19 Jun 03:33:52 03:38:58 54° 288° (WNW) 03:44:02 435.822 SSB
AO-27 19 Jun 03:34:54 03:39:58 51° 289° (WNW) 03:45:01 436.795 MHz FM
KITSAT 1 19 Jun 03:37:05 03:44:58 56° 247° (WSW) 03:52:48 435.175 FM
Oscar 16 19 Jun 03:55:41 03:59:44 24° 295° (WNW) 04:03:46 437.025 USB, Beacon 2401.1428
Uribyol 2 19 Jun 04:08:11 04:12:27 26° 295° (WNW) 04:16:41 436.500 FM
AO-Echo 19 Jun 04:15:38 04:20:39 55° 288° (WNW) 04:25:46 ?
TMSAT-1 19 Jun 04:27:49 04:32:55 45° 99° (E) 04:37:58 436.925 FM
UOSAT-12 19 Jun 04:31:34 04:36:04 89° 122° (ESE) 04:40:39 437.025 FM, 437.400 FM
AO-7 19 Jun 04:33:48 04:39:41 21° 92° (E) 04:45:31 29.400 - 29.500 MHz
Uosat F 19 Jun 04:34:49 04:39:54 85° 104° (ESE) 04:44:58 435.120 FM
Gurwin Techsat 1B 19 Jun 05:08:02 05:13:12 53° 288° (WNW) 05:18:20 435.225 FM
MaSat-1 19 Jun 05:08:15 05:10:30 26° 60° (ENE) 05:12:42 437.345 MHz
STRAND 1 19 Jun 06:01:05 06:05:56 45° 70° (ENE) 06:10:50 ?
TMSAT-1 19 Jun 06:08:26 06:12:33 23° 295° (WNW) 06:16:39 436.925 FM
UOSAT-12 19 Jun 06:14:27 06:16:54 14° 321° (NW) 06:19:23 437.025 FM, 437.400 FM
Uosat F 19 Jun 06:15:59 06:17:59 12° 301° (WNW) 06:19:59 435.120 FM
AO-7 19 Jun 06:24:54 06:33:19 82° 290° (WNW) 06:41:39 29.400 - 29.500 MHz
Saudisat 1A 19 Jun 07:00:19 07:04:46 52° 53° (NE) 07:09:07 436.775 MHz
JAS-1B 19 Jun 07:32:27 07:37:25 27° 97° (E) 07:42:54 435.800 - 435.900 CW/SSB
STRAND 1 19 Jun 07:41:30 07:45:20 21° 267° (W) 07:49:13 ?
Hamsat 19 Jun 07:51:38 07:56:01 68° 101° (E) 08:00:20 145.90 MHz
AO-7 19 Jun 08:19:26 08:24:52 20° 310° (NW) 08:30:17 29.400 - 29.500 MHz
Sapphire 19 Jun 08:28:56 08:31:05 12° 38° (NE) 08:33:13 437.095 MHz 1200 baud AX-25 AFSK
Saudisat 1A 19 Jun 08:41:08 08:44:02 17° 250° (WSW) 08:46:53 436.775 MHz
SO-67 19 Jun 08:51:00 08:54:35 70° 284° (WNW) 08:58:08 435.3500 MHz FM
JAS-1B 19 Jun 09:22:45 09:28:14 44° 290° (WNW) 09:34:22 435.800 - 435.900 CW/SSB
Hamsat 19 Jun 09:29:52 09:31:30 12° 298° (WNW) 09:33:07 145.90 MHz
Oscar 11 19 Jun 09:34:33 09:35:41 11° 90° (E) 09:36:49 145.825 FM, Beacon 2401.500 USB
PCSat 19 Jun 09:35:52 09:40:52 36° 52° (NE) 09:45:50 145.825 MHz
SO-50 19 Jun 09:41:00 09:45:05 32° 49° (NE) 09:49:07 436.795 FM
RS-15 19 Jun 09:41:12 09:46:16 14° 96° (E) 09:51:14 29.354 - 29.394 USB, Beacon 29.352 USB
HO-68 19 Jun 09:59:31 10:06:23 46° 100° (E) 10:13:12 435.675 MHz FM
Sapphire 19 Jun 10:10:13 10:15:38 63° 58° (ENE) 10:21:00 437.095 MHz 1200 baud AX-25 AFSK
JAS-2 19 Jun 10:12:16 10:17:26 46° 99° (E) 10:22:22 435.800 - 435.900 CW/SSB, 435.910 FM
Oscar 11 19 Jun 11:07:59 11:12:21 65° 285° (WNW) 11:16:40 145.825 FM, Beacon 2401.500 USB
PCSat 19 Jun 11:19:24 11:24:13 33° 250° (WSW) 11:29:01 145.825 MHz
SO-50 19 Jun 11:21:44 11:25:37 29° 246° (WSW) 11:29:28 436.795 FM
UOSAT-12 19 Jun 11:23:22 11:25:09 12° 36° (NE) 11:26:55 437.025 FM, 437.400 FM
RS-15 19 Jun 11:44:37 11:56:28 68° 115° (ESE) 12:07:49 29.354 - 29.394 USB, Beacon 29.352 USB
OPAL 19 Jun 11:45:46 11:50:44 68° 104° (ESE) 11:55:42 ?
HO-68 19 Jun 11:47:31 11:53:52 36° 297° (WNW) 12:00:14 435.675 MHz FM
Sapphire 19 Jun 11:55:00 11:58:31 18° 255° (WSW) 12:02:00 437.095 MHz 1200 baud AX-25 AFSK
JAS-2 19 Jun 11:58:12 12:02:12 21° 298° (WNW) 12:06:02 435.800 - 435.900 CW/SSB, 435.910 FM
Oscar 19 19 Jun 12:49:00 12:52:43 20° 64° (ENE) 12:56:25 437.125 CW, 437.150 USB
UOSAT-12 19 Jun 13:01:33 13:06:10 70° 56° (NE) 13:10:46 437.025 FM, 437.400 FM
ITAMSAT 1 19 Jun 13:13:14 13:17:35 28° 66° (ENE) 13:21:59 435.822 SSB
AO-27 19 Jun 13:14:16 13:18:42 29° 66° (ENE) 13:23:10 436.795 MHz FM
OPAL 19 Jun 13:26:17 13:29:05 15° 301° (WNW) 13:31:53 ?
Oscar 16 19 Jun 13:32:27 13:37:31 59° 73° (ENE) 13:42:37 437.025 USB, Beacon 2401.1428
Uribyol 2 19 Jun 13:45:52 13:50:58 58° 72° (ENE) 13:56:07 436.500 FM
AO-Echo 19 Jun 13:51:28 13:54:57 21° 65° (ENE) 13:58:31 ?
RS-15 19 Jun 13:58:35 14:09:36 42° 319° (NW) 14:20:14 29.354 - 29.394 USB, Beacon 29.352 USB
Uosat F 19 Jun 14:12:12 14:14:46 14° 60° (ENE) 14:17:21 435.120 FM
Oscar 19 19 Jun 14:26:40 14:31:41 51° 260° (W) 14:36:43 437.125 CW, 437.150 USB
UOSAT-12 19 Jun 14:43:42 14:45:45 13° 252° (WSW) 14:47:49 437.025 FM, 437.400 FM
Gurwin Techsat 1B 19 Jun 14:49:53 14:54:26 30° 67° (ENE) 14:59:00 435.225 FM
ITAMSAT 1 19 Jun 14:52:10 14:56:56 36° 263° (W) 15:01:45 435.822 SSB
AO-27 19 Jun 14:53:23 14:58:06 35° 263° (W) 15:02:52 436.795 MHz FM
Oscar 16 19 Jun 15:14:04 15:17:16 16° 269° (W) 15:20:28 437.025 USB, Beacon 2401.1428
Uribyol 2 19 Jun 15:27:29 15:30:50 17° 268° (W) 15:34:12 436.500 FM
AO-Echo 19 Jun 15:29:02 15:33:28 41° 262° (W) 15:38:00 ?
AO-7 19 Jun 15:32:30 15:39:24 31° 57° (ENE) 15:46:21 29.400 - 29.500 MHz
ISS 19 Jun 15:44:29 15:47:39 46° 138° (SE) 15:50:49 145.800 FM
Uosat F 19 Jun 15:47:57 15:52:57 73° 257° (WSW) 15:58:00 435.120 FM
TMSAT-1 19 Jun 15:48:19 15:53:35 68° 74° (ENE) 15:58:52 436.925 FM
KITSAT 1 19 Jun 16:11:44 16:17:39 23° 103° (ESE) 16:23:35 435.175 FM
RS-15 19 Jun 16:18:17 16:26:18 21° 352° (N) 16:34:07 29.354 - 29.394 USB, Beacon 29.352 USB
Gurwin Techsat 1B 19 Jun 16:29:30 16:34:18 34° 263° (W) 16:39:08 435.225 FM
ISS 19 Jun 17:21:39 17:24:28 26° 336° (NNW) 17:27:17 145.800 FM
AO-7 19 Jun 17:23:23 17:31:37 65° 256° (WSW) 17:39:57 29.400 - 29.500 MHz
TMSAT-1 19 Jun 17:31:09 17:34:00 15° 270° (W) 17:36:51 436.925 FM
KITSAT 1 19 Jun 18:04:08 18:12:11 76° 302° (WNW) 18:20:20 435.175 FM
STRAND 1 19 Jun 18:13:25 18:16:27 16° 91° (E) 18:19:28 ?
JAS-1B 19 Jun 18:18:50 18:24:00 24° 64° (ENE) 18:28:42 435.800 - 435.900 CW/SSB
RS-15 19 Jun 18:34:48 18:44:03 28° 28° (NNE) 18:53:01 29.354 - 29.394 USB, Beacon 29.352 USB
Hamsat 19 Jun 18:45:17 18:49:26 47° 73° (ENE) 18:53:39 145.90 MHz
ISS 19 Jun 19:00:28 19:02:01 13° 356° (N) 19:03:34 145.800 FM

Developed and maintained by Chris Peat, Heavens-Above GmbH. Please read the updated FAQ before sending e-mail. Imprint. DLR
